Location: ????????
(38.4362°N, 22.8767°E)
Time: 12:55:30
(UTC+00:00)

Lacrosse 5 rocket - Pass Details

Date: 23 April 2024
Orbit: 445 x 576 km, 57.0° (Epoch: 18 May)

Event Time Altitude Azimuth Distance (km) Brightness Sun altitude
Exits shadow 01:54:53 - 159° (SSE) 2,350 4.4 -19.5°
Reaches altitude 10° 01:57:43 10° 128° (SE) 1,844 4.2 -19.1°
Maximum altitude 01:58:25 10° 118° (ESE) 1,817 4.3 -19.0°
Drops below altitude 10° 01:59:07 10° 109° (ESE) 1,836 4.5 -18.8°
Sets 02:03:17 0° 67° (ENE) 2,698 6.4 -18.2°
